sat.trackr.live / text

‹ back to catalog

SHIYAN-28B 01

NORAD 64753 · 2025-145A

PAYLOAD ACTIVE UNKNOWN

§ Identity

Operator
Country
PRC
Launch date
2025-07-03
Launch site
XICLF
Launch vehicle
Mass (kg)
RCS (m²)

External: N2YO · Heavens-Above · Gunter

§ Orbital elements

Epoch: 2026-09-21T00:41:53.909952Z

Period
100.75 min
Inclination
10.9990°
Eccentricity
0.0003807
Mean motion
14.29333948 rev/d
Perigee alt
791.2 km
Apogee alt
796.7 km
Semi-major
7,172.1 km
B*
4.5049e-5
RAAN
61.8567°
Arg perigee
279.1950°
Mean anomaly
80.7847°
Rev number
6,364

§ Raw data

SHIYAN-28B 011 64753U 25145A   26264.02909618  .00000548  00000+0  45049-4 0  99992 64753  10.9990  61.8567 0003807 279.1950  80.7847 14.29333948 63648

JSON: /api/v1/satellites/64753 · /tle

For live sub-satellite position, see the globe view (requires WebGL).

§ Visibility from observer

Set your observer location to see the next 7 days of passes ≥ 10°. The values pass through the URL so the page stays shareable.

No JS? Fill the form by hand. The geolocation button needs JavaScript.